OBJECT W (43778 NORAD) Tracking and Keplerian Element Data

This shows tracking and keplerian element data for the satellite.

Feedback or suggestion? Click here.




ElementValue
Catalog43778
NameOBJECT W
Epoch Orbit524
Epoch Day10.70783956
Epoch Year2019
RAAN84.4313
Inclination97.7553
Eccentricity0.0015111
Argument of Perigee136.7296
Mean Anonmoly223.5114
Mean Motion14.94757941
Decay Rate-1.13E-06
L11 43778U 18099W 19010.70783956 -.00000113 00000-0 -50452-5 0 9990
L22 43778 97.7553 84.4313 0015111 136.7296 223.5114 14.94757941 5243

Live tracking and technical data element details for OBJECT W (NORAD 43778). OBJECT W can be tracked NOW for your location showing map with azimuth and elevation plus other details from your city location.

Track the satellite on the map from your city or location and see movement details for azimuth, elevation, latitude, longitude, range, height, and movement on the map or in text.







IsCatalogInMostPopularTable: catalog: 43778, numindb: 15
Update: records affected: 1



GetName: 43778 OBJECT W

Hit Count: updated at: Thu, 17 Jan 2019 15:06:04 GMT